DELTA 1 DEB, 7148

Orbit data source: Space-Track

DELTA 1 DEB, 7148 is space debris in SSO originally from a launch on Tue, 06 Nov 1973 UTC launched from the Air Force Western Test Range (AFWTR). Debris objects in space refer to the collection of defunct objects orbiting the Earth. Examples of debris include non-operational satellites, rocket bodies, and fragments generated from explosions, collisions, or faulty payload assembly.

Loading next visibility...
Identifier
7148, 1973-086DN
Orbit
SSO
Country
Flag of USUS
Related business
Manufacturer
Unknown
Mission
Spacecraft
Bus & Motor
Unknown
Mass
Unknown
Launch date (UTC)
1973-11-06 (53 years ago)
Launch vehicle
Unknown
Launch site
Air Force Western Test Range (AFWTR)
Object type
Payload
Rocket body
Debris
Shape & HBR
Unknown shape, 0.3 m
Radar Cross Section
Medium (>0.1 m² and <1 m²)

Expand to show TLE details & history
Last TLE update: 21 hours ago

TLE from 21 hours ago
0 DELTA 1 DEB
1  7148U 73086DN  26209.01920035  .00000331  00000-0  32730-2 0  9997
2  7148 102.0483 234.0880 0122546 217.1719 203.2863 12.26089306358606
Epoch: 2026-07-28T00:27Z
TLE epoch observation values (Epoch: 2026-07-28T00:27:38.910Z)
Latitude
57.89016°
Longitude
-98.30347°
Altitude
1,665.283 km
Speed
7.006 km/s
True Right ascension
14h 17m 12s
True Declination
57° 45' 09"
Sunlit
Object was in daylight at epoch
Visualization orbit readout
Latitude
Unknown
Longitude
Unknown
Altitude
Unknown
Speed
Unknown
Apparent Right ascension
Unknown
Apparent Declination
Unknown
Sunlit
N/A
Visualization observer readout
Local Sidereal Time
10:25:35
Azimuth
Unknown
Elevation
Unknown
Doppler factor
Unknown
Orbital elements
Apogee altitude
1,661.049 km
Perigee altitude
1,466.4 km
Semi-major axis
7,941.861 km
Eccentricity
0.01225
Inclination
102.0483°
RAAN
234.088°
Arg. of periapsis
217.1719°
True anomaly
202.73887°
Mean anomaly
203.2863°
Eccentric anomaly
203.01182°
Mean motion
3.06662 °/min
Orbital period
117.39 mins
BSTAR
0.003273
Loading maneuver chart data...
Computing Atmospheric mass density...
Loading historical data...
Loading historical data...
Loading historical data...
Loading historical data...
Loading historical data...
Loading historical data...
Loading historical data...

Documentation

Showing up to 5 results
|